This is the latest recevied weather packets stored in our database for station/object KB1JDX. If no packets are shown the sender has not sent any weather packets the latest 10 day(s).
| Time | Temp. | Humidity | Pressure | Rain* | Wind** | Luminosity | Snow |
|---|---|---|---|---|---|---|---|
| 1787685426 | 25.56° C | 51% | 1013.4 hPa | 0 mm | 0 m/s | - | - |
| 1787684295 | 25.56° C | 50% | 1013.5 hPa | 0 mm | 0 m/s | - | - |
| 1787683094 | 25.56° C | 51% | 1013.7 hPa | 0 mm | 0 m/s | - | - |
| 1787681893 | 25.56° C | 51% | 1013.6 hPa | 0 mm | 0 m/s | - | - |
| 1787681826 | 25.56° C | 51% | 1013.6 hPa | 0 mm | 0 m/s | - | - |
| 1787680694 | 26.11° C | 50% | 1013.5 hPa | 0 mm | 0 m/s | - | - |
| 1787679494 | 26.67° C | 48% | 1013.6 hPa | 0 mm | 0 m/s | - | - |
| 1787678293 | 25.56° C | 49% | 1013.6 hPa | 0 mm | 0 m/s | - | - |
| 1787678226 | 25.56° C | 49% | 1013.6 hPa | 0 mm | 0 m/s | - | - |
| 1787677093 | 25° C | 49% | 1013.5 hPa | 0 mm | 0 m/s | - | - |
| 1787675895 | 25.56° C | 48% | 1013.7 hPa | 0 mm | 0 m/s | - | - |
| 1787674694 | 25° C | 47% | 1013.9 hPa | 0 mm | 0 m/s | - | - |
| 1787674626 | 25° C | 47% | 1013.9 hPa | 0 mm | 0 m/s | - | - |
| 1787673493 | 25° C | 46% | 1014 hPa | 0 mm | 0 m/s | - | - |
| 1787672295 | 25° C | 45% | 1014 hPa | 0 mm | 0 m/s | - | - |
| 1787671094 | 24.44° C | 44% | 1014.2 hPa | 0 mm | 0 m/s | - | - |
| 1787671026 | 24.44° C | 44% | 1014.3 hPa | 0 mm | 0 m/s | - | - |
| 1787669893 | 24.44° C | 41% | 1014.3 hPa | 0 mm | 0 m/s | - | - |
| 1787668694 | 23.33° C | 35% | 1014.5 hPa | 0 mm | 0 m/s | - | - |
| 1787667494 | 22.78° C | 28% | 1014.9 hPa | 0 mm | 0 m/s | - | - |
| 1787667426 | 22.78° C | 27% | 1014.8 hPa | 0 mm | 0 m/s | - | - |
| 1787666294 | 21.11° C | 12% | 1014.9 hPa | 0 mm | 0 m/s | - | - |
| 1787665096 | 19.44° C | 100% | 1014.9 hPa | 0 mm | 0 m/s | - | - |
| 1787663894 | 18.33° C | 100% | 1014.8 hPa | 0 mm | 0 m/s | - | - |
| 1787663826 | 18.33° C | 100% | 1014.8 hPa | 0 mm | 0 m/s | - | - |
* Rain latest hour (hover to see other rain measurements)
** Current wind speed in m/s (hover to see current wind gust speed)